COSMOS 1275 DEB, 12675

Orbit data source: Space-Track

COSMOS 1275 DEB, 12675 is space debris in LEO originally from a launch on Thu, 04 Jun 1981 UTC launched from the Plesetsk Missile And Space Complex (PKMTR). Debris objects in space refer to the collection of defunct objects orbiting the Earth. Examples of debris include non-operational satellites, rocket bodies, and fragments generated from explosions, collisions, or faulty payload assembly.

Loading next visibility...
Identifier
12675, 1981-053AF
Orbit
LEO
Last TLE update
1 day ago
Origin
Manufacturer
Unknown
Mission
Spacecraft
Bus & Motor
Unknown
Mass
Unknown
Launch date (UTC)
1981-06-04 (44 years ago)
Launch vehicle
Unknown
Launch site
Plesetsk Missile And Space Complex (PKMTR)
Object type
Payload
Rocket body
Debris
Shape & HBR
Unknown
Radar Cross Section
Medium (>0.1 m² and <1 m²)

Expand to show TLE details & history

TLE from 1 day ago
0 COSMOS 1275 DEB
1 12675U 81053AF  25166.49573306  .00000561  00000-0  51448-3 0  9992
2 12675  82.9356 176.8223 0062448 236.1136 278.4391 13.80452737197945
Epoch: 2025-06-15T11:53Z
TLE epoch observation values (Epoch: 2025-06-15T11:53:51.336Z)
Latitude
25.9751°
Longitude
-89.10494°
Altitude
958.988 km
Speed
7.378 km/s
True Right ascension
23h 33m 30s
True Declination
25° 50' 37"
Sunlit
Object was in daylight at epoch
Visualization orbit readout
Latitude
30.02482°
Longitude
-90.50593°
Altitude
960.557 km
Speed
7.377 km/s
Apparent Right ascension
01h 11m 10s
Apparent Declination
-13° 55' 52"
Sunlit
Object is in daylight
Visualization observer readout
Local Sidereal Time
22:53:29
Azimuth
141.852° SSE
Elevation
27.363°
Doppler factor
1
Orbital elements
Apogee altitude
1,005.244 km
Perigee altitude
913.601 km
Semi-major axis
7,337.56 km
Eccentricity
0.00624
Inclination
82.9356°
RAAN
176.8223°
Arg. of periapsis
236.1136°
True anomaly
Unknown
Mean anomaly
278.4391°
Eccentric anomaly
Unknown
Mean motion
3.45315 °/min
Orbital period
104.25 mins
BSTAR
0.00051448
Loading maneuver chart data...
Loading SW <> Apogee altitude chart data...
Loading historical data...
Loading historical data...
Loading historical data...
Loading historical data...
Loading historical data...
Loading historical data...
Loading historical data...

COSMOS 1275 DEB Visibility forecast

Observer location: undefined°, undefined°

Span
Click to sort rows by Start time (UTC) header in descending order
Start Az.
Max El. time (UTC)
Max El. Az.
Max El.
End time (UTC)
End Az.
7 mins2025-06-16 13:51:53.600Z315.981° NNW2025-06-16 13:54:53.600Z282.348° WNW20.438°2025-06-16 13:58:53.600Z235.296° WSW
5 mins2025-06-16 23:50:53.600Z99.859° ESE2025-06-16 23:52:53.600Z78.26° E15.705°2025-06-16 23:55:53.600Z48.608° ENE
11 mins2025-06-17 01:31:53.600Z194.858° SSW2025-06-17 01:36:53.600Z271.761° WNW43.732°2025-06-17 01:42:53.600Z2.671° NNE
|